Content
SEND FEEDBACK

Daily
Averages
Monthly
Summary
Cyprus

LIMASSOL, CYPRUS


Home > Europe > Cyprus
Elevation: 75 feet     Latitude: 34 35N     Longitude: 032 59E

WEATHER
 
SELECT A DAY
Number of Records: 153,606;   Date Range: 7/1/96 - 9/21/14
 
SHARE

PRINT THIS DATA

[ ← Previous Day ]
WEATHER ALMANAC - FEBRUARY 13, 2013
[ Next Day → ]
[ °C ]   °F
Weather ElementAverageHighLow
Temperature56.7 °F64.4 °F (1:50 pm)48.2 °F (1:50 am)
Dewpoint44.7 °F46.4 °F (12:50 pm)42.8 °F (5:50 am)
Humidity64 %87 % (1:50 am)38 % (1:50 pm)
Barometer30.10 in30.17 in (7:50 am)30.04 in (10:50 pm)
Wind Speed9.5 mph17.3 mph (1:50 pm)
Weather ElementAverage
Visibility10.3 mi
Wind DirectionSSE (144.8 °)

Weather ElementTotal
Precipitation---
Heating Degree Days8.7 (Base 65)
Growing Degree Days6.3 (Base 50)
Averaged from 27 records on February 13, 2013
WEATHER CONDITIONS BREAKOUT
WIND DIRECTION BREAKOUT
WEATHER BY HOUR - FEBRUARY 13, 2013
[ °C ]   °F
Local TimeTemperatureDewpointHumidityBarometerVisibilityWind DirectionWind SpeedGust SpeedPrecipitationEventsConditions
1:50 AM49.0 °F44.0 °F77 %30.15 in25.0 miNNE (20°)1.2 mphMostly Cloudy
1:50 AM48.2 °F44.6 °F87 %30.12 in6.2 miNNE (20°)1.2 mphMostly Cloudy
2:50 AM50.0 °F44.6 °F82 %30.12 in6.2 miNorth (360°)1.2 mphMostly Cloudy
3:50 AM50.0 °F44.6 °F82 %30.12 inNW (320°)2.3 mphMostly Cloudy
4:50 AM50.0 °F44.6 °F82 %30.12 in6.2 miNNW (330°)4.6 mphMostly Cloudy
5:50 AM50.0 °F42.8 °F76 %30.12 in6.2 miNorth (350°)2.3 mphMostly Cloudy
6:50 AM50.0 °F44.6 °F82 %30.15 in6.2 miNW (310°)2.3 mphMostly Cloudy
7:50 AM53.0 °F43.0 °F59 %30.17 in25.0 miNW (310°)3.5 mphMostly Cloudy
7:50 AM53.6 °F42.8 °F67 %30.15 in6.2 miNW (310°)3.5 mphMostly Cloudy
8:50 AM55.4 °F44.6 °F67 %30.15 in6.2 miNNW (340°)2.3 mphMostly Cloudy
9:50 AM59.0 °F42.8 °F55 %30.15 in6.2 miNorth (10°)4.6 mphMostly Cloudy
10:50 AM60.8 °F42.8 °F52 %30.15 inENE (60°)5.8 mphPartly Cloudy
11:50 AM62.6 °F44.6 °F52 %30.12 in6.2 miEast (90°)8.1 mphScattered Clouds
12:50 PM62.6 °F46.4 °F55 %30.12 in6.2 miEast (80°)12.7 mphScattered Clouds
1:50 PM64.0 °F44.0 °F38 %30.11 in31.0 miEast (90°)17.3 mphScattered Clouds
1:50 PM64.4 °F44.6 °F49 %30.09 in6.2 miEast (90°)17.3 mphMostly Cloudy
2:50 PM62.6 °F44.6 °F52 %30.09 in6.2 miEast (100°)16.1 mphMostly Cloudy
3:50 PM62.6 °F46.4 °F55 %30.09 in6.2 miEast (100°)13.8 mphMostly Cloudy
4:50 PM60.8 °F44.6 °F55 %30.09 in6.2 miEast (90°)13.8 mphMostly Cloudy
5:50 PM59.0 °F44.6 °F59 %30.06 in6.2 miEast (80°)13.8 mphMostly Cloudy
6:50 PM59.0 °F44.6 °F59 %30.06 in6.2 miENE (70°)15.0 mphMostly Cloudy
7:50 PM57.0 °F46.0 °F56 %30.07 in25.0 miENE (60°)13.8 mphClear
7:50 PM57.2 °F46.4 °F67 %30.06 inENE (60°)13.8 mphClear
8:50 PM57.2 °F44.6 °F63 %30.06 inENE (60°)16.1 mph
9:50 PM57.2 °F46.4 °F67 %30.06 inENE (60°)17.3 mph
10:50 PM57.2 °F46.4 °F67 %30.04 inENE (70°)17.3 mphClear
11:50 PM57.2 °F46.4 °F67 %30.04 inENE (70°)16.1 mphClear
Hourly data recorded from LCRA, located miles away from Limassol, Cyprus







STORIES FROM OUR PARTNERS